Weather History for Mineral Point, WI

Change the Weather History Date:

Monday, February 4, 2013

  Actual Average (KLNR) Record (KLNR)
Temperature  
Mean Temperature 16 °F -  
Max Temperature 21 °F 29 °F 48 °F (2005)
Min Temperature 10 °F 13 °F -15 °F (2004)
Degree Days  
Heating Degree Days 48    
Moisture  
Dew Point 11 °F    
Average Humidity 74    
Maximum Humidity 93    
Minimum Humidity 58    
Precipitation  
Precipitation 0.02 in - - ()
Sea Level Pressure  
Sea Level Pressure 29.90 in    
Wind  
Wind Speed 7 mph (NE)    
Max Wind Speed 13 mph    
Max Gust Speed -    
Visibility 9 miles    
Events Snow    
Averages and records for this station are not official NWS values.
T = Trace of Precipitation, MM = Missing Value Source: NWS Daily Summary

Daily Weather History Graph

Daily Weather History Graph

Search for Another Location

Airport:

Trip Planner

Search our weather history database for the weather conditions in past years. The results will help you decide how hot, cold, wet, or windy it might be!

Date:

Astronomy

Feb. 04, 2013 Rise Set
Actual Time 7:12 AM CST 5:18 PM CST
Civil Twilight 6:42 AM CST 5:48 PM CST
Nautical Twilight 6:08 AM CST 6:21 PM CST
Astronomical Twilight 5:35 AM CST 6:54 PM CST
Moon 1:49 AM CST (2/4) 11:39 AM CST (2/4)
Length of Visible Light 11h 05m
Length of Day
10h 06m
Last Quarter, 37% of the Moon is Illuminated
Feb 4
Last Quarter
Feb 10
New
Feb 17
First Quarter
Feb 25
Full
Mar 4
Last Quarter

Hourly Weather History & Observations

Time (CST) Temp. Windchill Dew Point Humidity Pressure Visibility Wind Dir Wind Speed Gust Speed Precip Events Conditions
12:15 AM 19.4 °F 11.5 °F 15.8 °F 86% 29.91 in 1.5 mi ESE 5.8 mph - N/A Snow Light Snow
12:35 AM 19.4 °F 12.8 °F 17.6 °F 93% 29.90 in 2.0 mi East 4.6 mph - N/A Snow Light Snow
12:55 AM 19.4 °F 10.4 °F 17.6 °F 93% 29.89 in 1.8 mi East 6.9 mph - 0.01 in Snow Light Snow
1:15 AM 19.4 °F 10.4 °F 15.8 °F 86% 29.88 in 1.5 mi East 6.9 mph - N/A Snow Light Snow
1:35 AM 19.4 °F 9.5 °F 15.8 °F 86% 29.87 in 1.0 mi ENE 8.1 mph - N/A Snow Snow
1:55 AM 19.4 °F 10.4 °F 15.8 °F 86% 29.87 in 1.2 mi East 6.9 mph - 0.01 in Snow Light Snow
2:15 AM 19.4 °F 8.6 °F 15.8 °F 86% 29.87 in 2.0 mi East 9.2 mph - N/A Snow Light Snow
2:35 AM 19.4 °F 9.5 °F 15.8 °F 86% 29.86 in 3.0 mi East 8.1 mph - N/A Snow Light Snow
2:55 AM 19.4 °F 8.6 °F 15.8 °F 86% 29.86 in 4.0 mi ENE 9.2 mph - N/A Snow Light Snow
3:15 AM 19.4 °F 8.6 °F 15.8 °F 86% 29.86 in 5.0 mi NE 9.2 mph - N/A Snow Light Snow
4:55 AM 19.4 °F 7.9 °F 14.0 °F 80% 29.84 in 10.0 mi ENE 10.4 mph - N/A   Overcast
5:15 AM 19.4 °F 6.6 °F 14.0 °F 80% 29.84 in 10.0 mi NE 12.7 mph - N/A   Overcast
5:35 AM 19.4 °F 7.9 °F 14.0 °F 80% 29.85 in 10.0 mi NE 10.4 mph - N/A   Overcast
5:55 AM 17.6 °F 5.0 °F 14.0 °F 86% 29.84 in 10.0 mi ENE 11.5 mph - N/A   Overcast
6:15 AM 17.6 °F 6.4 °F 14.0 °F 86% 29.85 in 10.0 mi NE 9.2 mph - N/A   Overcast
6:35 AM 17.6 °F 5.7 °F 12.2 °F 79% 29.86 in 10.0 mi NE 10.4 mph - N/A   Overcast
6:55 AM 17.6 °F 5.0 °F 12.2 °F 79% 29.86 in 10.0 mi NE 11.5 mph - N/A   Overcast
7:15 AM 17.6 °F 8.2 °F 12.2 °F 79% 29.87 in 10.0 mi NE 6.9 mph - N/A   Overcast
7:35 AM 17.6 °F 5.7 °F 12.2 °F 79% 29.87 in 10.0 mi NE 10.4 mph - N/A   Overcast
7:55 AM 17.6 °F 4.3 °F 12.2 °F 79% 29.88 in 10.0 mi NE 12.7 mph - N/A   Overcast
8:15 AM 17.6 °F 5.0 °F 12.2 °F 79% 29.88 in 5.0 mi NE 11.5 mph - N/A   Haze
8:35 AM 17.6 °F 5.7 °F 12.2 °F 79% 29.88 in 7.0 mi NE 10.4 mph - N/A   Overcast
8:55 AM 17.6 °F 7.3 °F 10.4 °F 73% 29.89 in 7.0 mi NE 8.1 mph - N/A   Overcast
9:15 AM 17.6 °F 5.7 °F 10.4 °F 73% 29.90 in 7.0 mi NNE 10.4 mph - N/A   Overcast
9:55 AM 17.6 °F 5.0 °F 10.4 °F 73% 29.90 in 10.0 mi NE 11.5 mph - N/A   Overcast
10:15 AM 17.6 °F 4.3 °F 10.4 °F 73% 29.91 in 10.0 mi NE 12.7 mph - N/A   Overcast
10:35 AM 17.6 °F 5.0 °F 10.4 °F 73% 29.91 in 10.0 mi NE 11.5 mph - N/A   Overcast
10:55 AM 19.4 °F 10.4 °F 10.4 °F 68% 29.92 in 10.0 mi NNE 6.9 mph - N/A   Overcast
11:15 AM 19.4 °F 8.6 °F 10.4 °F 68% 29.93 in 10.0 mi NNE 9.2 mph - N/A   Overcast
11:35 AM 19.4 °F 7.9 °F 10.4 °F 68% 29.93 in 10.0 mi NNE 10.4 mph - N/A   Overcast
11:55 AM 19.4 °F 9.5 °F 10.4 °F 68% 29.93 in 10.0 mi North 8.1 mph - N/A   Overcast
12:15 PM 19.4 °F 8.6 °F 10.4 °F 68% 29.92 in 10.0 mi North 9.2 mph - N/A   Overcast
12:35 PM 19.4 °F 9.5 °F 10.4 °F 68% 29.93 in 10.0 mi NNW 8.1 mph - N/A   Overcast
12:55 PM 19.4 °F 10.4 °F 10.4 °F 68% 29.94 in 10.0 mi North 6.9 mph - N/A   Overcast
1:15 PM 21.2 °F 12.6 °F 10.4 °F 63% 29.92 in 10.0 mi NNE 6.9 mph - N/A   Overcast
1:35 PM 21.2 °F 12.6 °F 10.4 °F 63% 29.91 in 10.0 mi NNE 6.9 mph - N/A   Scattered Clouds
1:55 PM 21.2 °F 13.6 °F 10.4 °F 63% 29.90 in 10.0 mi North 5.8 mph - N/A   Clear
2:15 PM 21.2 °F 14.9 °F 10.4 °F 63% 29.90 in 10.0 mi NNE 4.6 mph - N/A   Clear
2:35 PM 21.2 °F 14.9 °F 8.6 °F 58% 29.90 in 10.0 mi NNE 4.6 mph - N/A   Clear
2:55 PM 21.2 °F 14.9 °F 10.4 °F 63% 29.91 in 10.0 mi North 4.6 mph - N/A   Clear
3:15 PM 21.2 °F 16.4 °F 8.6 °F 58% 29.90 in 10.0 mi North 3.5 mph - N/A   Clear
3:35 PM 21.2 °F 16.4 °F 8.6 °F 58% 29.90 in 10.0 mi North 3.5 mph - N/A   Clear
3:55 PM 21.2 °F - 8.6 °F 58% 29.91 in 7.0 mi Calm Calm - N/A   Clear
4:15 PM 19.4 °F - 8.6 °F 63% 29.91 in 10.0 mi Calm Calm - N/A   Clear
4:35 PM 19.4 °F - 8.6 °F 63% 29.91 in 10.0 mi Calm Calm - N/A   Clear
4:55 PM 19.4 °F - 8.6 °F 63% 29.92 in 10.0 mi Calm Calm - N/A   Clear
5:15 PM 19.4 °F - 8.6 °F 63% 29.92 in 10.0 mi Calm Calm - N/A   Clear
5:35 PM 19.4 °F - 8.6 °F 63% 29.91 in 10.0 mi Calm Calm - N/A   Clear
5:55 PM 17.6 °F - 8.6 °F 68% 29.92 in 10.0 mi Calm Calm - N/A   Clear
6:15 PM 19.4 °F - 8.6 °F 63% 29.91 in 10.0 mi Calm Calm - N/A   Clear
6:35 PM 19.4 °F - 8.6 °F 63% 29.93 in 10.0 mi Calm Calm - N/A   Clear
6:55 PM 15.8 °F - 8.6 °F 73% 29.94 in 10.0 mi Calm Calm - N/A   Clear
7:15 PM 17.6 °F - 8.6 °F 68% 29.93 in 10.0 mi Calm Calm - N/A   Clear
7:35 PM 17.6 °F - 8.6 °F 68% 29.93 in 10.0 mi Calm Calm - N/A   Clear
7:55 PM 15.8 °F - 8.6 °F 73% 29.92 in 10.0 mi Calm Calm - N/A   Scattered Clouds
8:15 PM 14.0 °F - 6.8 °F 73% 29.92 in 10.0 mi Calm Calm - N/A   Scattered Clouds
8:35 PM 15.8 °F - 6.8 °F 68% 29.92 in 10.0 mi Calm Calm - N/A   Clear
8:55 PM 15.8 °F - 8.6 °F 73% 29.92 in 10.0 mi Calm Calm - N/A   Clear
9:15 PM 14.0 °F - 8.6 °F 79% 29.91 in 10.0 mi Calm Calm - N/A   Clear
9:35 PM 14.0 °F - 8.6 °F 79% 29.91 in 10.0 mi Calm Calm - N/A   Clear
9:55 PM 14.0 °F 8.2 °F 8.6 °F 79% 29.92 in 10.0 mi SSE 3.5 mph - N/A   Clear
10:15 PM 14.0 °F 6.5 °F 8.6 °F 79% 29.91 in 10.0 mi SSE 4.6 mph - N/A   Clear
10:35 PM 12.2 °F 4.3 °F 6.8 °F 79% 29.89 in 10.0 mi SSE 4.6 mph - N/A   Clear
10:55 PM 12.2 °F 2.9 °F 8.6 °F 85% 29.89 in 10.0 mi South 5.8 mph - N/A   Scattered Clouds
11:15 PM 12.2 °F 4.3 °F 6.8 °F 79% 29.88 in 10.0 mi South 4.6 mph - N/A   Mostly Cloudy
11:35 PM 12.2 °F 4.3 °F 6.8 °F 79% 29.88 in 10.0 mi SSE 4.6 mph - N/A   Scattered Clouds
11:55 PM 10.4 °F 2.2 °F 5.0 °F 79% 29.87 in 10.0 mi SE 4.6 mph - N/A   Scattered Clouds